When you browse on this site, cookies collect data to enhance your experience and personalize the content and advertising you see.
Visit our Privacy Policy to learn more. By continuing to use the site, you agree to this use of cookies and data.
  • In Germany
  • List of Countries
  • For 7 days
  • Water Temperature
  • Satellite Maps
  • Weather Map
  • Weather Widgets
  • user-avatar
    Login

    Hourly Weather Newcastle upon Tyne

    Today, 16 December, Sunday

    Time Temperature Precipitation Wind Pressure Humidity
    00:00 +2°C° 0 mm 11 mps 736 mmHg 91%
    01:00 +2°C° 0.3 mm 11 mps 737 mmHg 87%
    02:00 +3°C° 0.3 mm 11 mps 738 mmHg 82%
    03:00 +3°C° 0.3 mm 12 mps 738 mmHg 78%
    04:00 +3°C° 0 mm 10 mps 739 mmHg 79%
    05:00 +3°C° 0 mm 9 mps 740 mmHg 81%
    06:00 +3°C° 0 mm 7 mps 741 mmHg 84%
    07:00 +3°C° 0 mm 7 mps 742 mmHg 85%
    08:00 +3°C° 0 mm 6 mps 743 mmHg 85%
    09:00 +2°C° 0 mm 6 mps 744 mmHg 86%
    10:00 +3°C° 0 mm 6 mps 745 mmHg 86%
    11:00 +3°C° 0 mm 5 mps 745 mmHg 85%
    12:00 +5°C° 0 mm 4 mps 745 mmHg 86%
    13:00 +4°C° 0 mm 4 mps 745 mmHg 87%
    14:00 +4°C° 0 mm 4 mps 746 mmHg 88%
    15:00 +4°C° 0 mm 4 mps 746 mmHg 90%
    16:00 +4°C° 0 mm 4 mps 746 mmHg 90%
    17:00 +3°C° 0 mm 4 mps 746 mmHg 90%
    18:00 +3°C° 0 mm 4 mps 746 mmHg 91%
    19:00 +3°C° 0.2 mm 4 mps 746 mmHg 91%
    20:00 +3°C° 0.2 mm 4 mps 746 mmHg 92%
    21:00 +3°C° 0.2 mm 4 mps 747 mmHg 93%
    22:00 +3°C° 0.5 mm 4 mps 747 mmHg 93%
    23:00 +4°C° 0.5 mm 4 mps 747 mmHg 93%

    Tomorrow, 17 December, Monday

    Time Temperature Precipitation Wind Pressure Humidity
    00:00 +4°C° 0.5 mm 4 mps 747 mmHg 93%
    01:00 +4°C° 0.3 mm 4 mps 748 mmHg 93%
    02:00 +3°C° 0.3 mm 4 mps 748 mmHg 92%
    03:00 +3°C° 0.3 mm 4 mps 749 mmHg 92%
    04:00 +3°C° 0 mm 4 mps 749 mmHg 91%
    05:00 +3°C° 0 mm 4 mps 750 mmHg 90%
    06:00 +3°C° 0 mm 4 mps 750 mmHg 90%
    07:00 +3°C° 0 mm 4 mps 751 mmHg 90%
    08:00 +3°C° 0 mm 3 mps 752 mmHg 89%
    09:00 +3°C° 0 mm 3 mps 752 mmHg 89%
    10:00 +4°C° 0 mm 3 mps 753 mmHg 87%
    11:00 +4°C° 0 mm 3 mps 753 mmHg 85%
    12:00 +5°C° 0 mm 4 mps 753 mmHg 83%
    13:00 +5°C° 0 mm 4 mps 753 mmHg 85%
    14:00 +5°C° 0 mm 4 mps 753 mmHg 86%
    15:00 +5°C° 0 mm 4 mps 753 mmHg 87%
    16:00 +5°C° 0 mm 5 mps 753 mmHg 87%
    17:00 +3°C° 0 mm 5 mps 753 mmHg 88%
    18:00 +3°C° 0 mm 6 mps 753 mmHg 88%
    19:00 +4°C° 0.1 mm 6 mps 753 mmHg 88%
    20:00 +4°C° 0.1 mm 7 mps 753 mmHg 88%
    21:00 +5°C° 0.1 mm 7 mps 752 mmHg 89%
    22:00 +5°C° 0 mm 7 mps 752 mmHg 89%
    23:00 +6°C° 0 mm 7 mps 752 mmHg 89%

    Day after tomorrow, 18 December, Tuesday

    Time Temperature Precipitation Wind Pressure Humidity
    00:00 +6°C° 0 mm 8 mps 752 mmHg 89%
    01:00 +6°C° 0 mm 8 mps 751 mmHg 89%
    02:00 +6°C° 0 mm 8 mps 751 mmHg 88%
    03:00 +6°C° 0 mm 8 mps 750 mmHg 88%
    04:00 +6°C° 0 mm 8 mps 750 mmHg 87%
    05:00 +7°C° 0 mm 8 mps 749 mmHg 87%
    06:00 +7°C° 0 mm 9 mps 748 mmHg 86%
    07:00 +7°C° 0 mm 9 mps 748 mmHg 85%
    08:00 +7°C° 0 mm 10 mps 747 mmHg 84%
    09:00 +7°C° 0 mm 11 mps 747 mmHg 84%
    10:00 +7°C° 0.2 mm 11 mps 746 mmHg 83%
    11:00 +7°C° 0.2 mm 11 mps 746 mmHg 82%
    12:00 +7°C° 0.2 mm 11 mps 745 mmHg 82%
    13:00 +7°C° 0.6 mm 11 mps 744 mmHg 81%
    14:00 +6°C° 0.6 mm 11 mps 743 mmHg 81%
    15:00 +6°C° 0.6 mm 11 mps 743 mmHg 80%
    16:00 +6°C° 0.9 mm 11 mps 742 mmHg 81%
    17:00 +6°C° 0.9 mm 11 mps 742 mmHg 82%
    18:00 +5°C° 0.9 mm 10 mps 742 mmHg 83%
    19:00 +5°C° 0.7 mm 9 mps 742 mmHg 85%
    20:00 +5°C° 0.7 mm 7 mps 742 mmHg 87%
    21:00 +5°C° 0.7 mm 6 mps 742 mmHg 89%
    22:00 +6°C° 0.2 mm 5 mps 742 mmHg 90%
    23:00 +5°C° 0.2 mm 4 mps 742 mmHg 90%

    19 December, Wednesday

    Time Temperature Precipitation Wind Pressure Humidity
    00:00 +5°C° 0.2 mm 3 mps 743 mmHg 91%
    01:00 +5°C° 0 mm 3 mps 743 mmHg 90%
    02:00 +5°C° 0 mm 3 mps 743 mmHg 90%
    03:00 +4°C° 0 mm 4 mps 743 mmHg 90%
    04:00 +4°C° 0 mm 4 mps 744 mmHg 90%
    05:00 +4°C° 0 mm 4 mps 744 mmHg 90%
    06:00 +4°C° 0 mm 4 mps 744 mmHg 89%
    07:00 +4°C° 0 mm 4 mps 745 mmHg 88%
    08:00 +3°C° 0 mm 4 mps 745 mmHg 87%
    09:00 +3°C° 0 mm 4 mps 746 mmHg 86%
    10:00 +4°C° 0 mm 4 mps 746 mmHg 83%
    11:00 +5°C° 0 mm 5 mps 746 mmHg 80%
    12:00 +5°C° 0 mm 5 mps 746 mmHg 77%
    13:00 +5°C° 0 mm 5 mps 746 mmHg 79%
    14:00 +5°C° 0 mm 5 mps 746 mmHg 80%
    15:00 +5°C° 0 mm 5 mps 745 mmHg 82%
    16:00 +3°C° 0 mm 5 mps 745 mmHg 83%
    17:00 +3°C° 0 mm 5 mps 745 mmHg 85%
    18:00 +3°C° 0 mm 5 mps 745 mmHg 86%
    19:00 +3°C° 0 mm 5 mps 745 mmHg 86%
    20:00 +3°C° 0 mm 5 mps 745 mmHg 86%
    21:00 +3°C° 0 mm 5 mps 745 mmHg 87%
    22:00 +3°C° 0 mm 5 mps 745 mmHg 87%
    23:00 +2°C° 0 mm 5 mps 745 mmHg 88%

    20 December, Thursday

    Time Temperature Precipitation Wind Pressure Humidity
    00:00 +2°C° 0 mm 5 mps 745 mmHg 88%
    01:00 +2°C° 0 mm 5 mps 745 mmHg 89%
    02:00 +2°C° 0 mm 5 mps 745 mmHg 90%
    03:00 +2°C° 0 mm 5 mps 745 mmHg 90%
    04:00 +2°C° 0 mm 5 mps 745 mmHg 90%
    05:00 +2°C° 0 mm 5 mps 745 mmHg 90%
    06:00 +2°C° 0 mm 5 mps 745 mmHg 91%
    07:00 +2°C° 0 mm 5 mps 745 mmHg 91%
    08:00 +2°C° 0 mm 5 mps 745 mmHg 91%
    09:00 +2°C° 0 mm 5 mps 745 mmHg 91%
    10:00 +3°C° 0 mm 5 mps 745 mmHg 89%
    11:00 +3°C° 0 mm 5 mps 745 mmHg 88%
    12:00 +5°C° 0 mm 5 mps 745 mmHg 86%
    13:00 +5°C° 0 mm 5 mps 745 mmHg 87%
    14:00 +5°C° 0 mm 4 mps 745 mmHg 87%
    15:00 +5°C° 0 mm 4 mps 745 mmHg 88%
    16:00 +4°C° 0.1 mm 3 mps 746 mmHg 89%
    17:00 +4°C° 0.1 mm 3 mps 746 mmHg 91%
    18:00 +3°C° 0.1 mm 3 mps 746 mmHg 92%
    19:00 +3°C° 0 mm 3 mps 747 mmHg 92%
    20:00 +3°C° 0 mm 3 mps 747 mmHg 92%
    21:00 +3°C° 0 mm 3 mps 747 mmHg 93%
    22:00 +3°C° 0 mm 3 mps 748 mmHg 93%
    23:00 +3°C° 0 mm 3 mps 748 mmHg 92%

    21 December, Friday

    Time Temperature Precipitation Wind Pressure Humidity
    00:00 +3°C° 0 mm 3 mps 748 mmHg 92%
    01:00 +3°C° 0 mm 3 mps 748 mmHg 92%
    02:00 +4°C° 0 mm 2 mps 748 mmHg 92%
    03:00 +4°C° 0 mm 2 mps 747 mmHg 92%
    04:00 +4°C° 0 mm 2 mps 747 mmHg 92%
    05:00 +4°C° 0 mm 2 mps 747 mmHg 92%
    06:00 +3°C° 0 mm 3 mps 747 mmHg 91%
    07:00 +3°C° 0.1 mm 3 mps 746 mmHg 91%
    08:00 +3°C° 0.1 mm 3 mps 746 mmHg 91%
    09:00 +3°C° 0.1 mm 4 mps 746 mmHg 90%
    10:00 +3°C° 0.6 mm 4 mps 745 mmHg 90%
    11:00 +3°C° 0.6 mm 4 mps 745 mmHg 90%
    12:00 +4°C° 0.6 mm 4 mps 744 mmHg 90%
    13:00 +4°C° 0.6 mm 4 mps 744 mmHg 91%
    14:00 +4°C° 0.6 mm 4 mps 744 mmHg 92%
    15:00 +4°C° 0.6 mm 4 mps 744 mmHg 92%
    16:00 +4°C° 0.1 mm 4 mps 744 mmHg 92%
    17:00 +4°C° 0.1 mm 4 mps 744 mmHg 92%
    18:00 +4°C° 0.1 mm 4 mps 744 mmHg 91%
    19:00 +4°C° 0.1 mm 4 mps 744 mmHg 91%
    20:00 +4°C° 0.1 mm 3 mps 744 mmHg 92%
    21:00 +5°C° 0.1 mm 3 mps 744 mmHg 92%
    22:00 +5°C° 0.4 mm 3 mps 744 mmHg 93%
    23:00 +5°C° 0.4 mm 3 mps 744 mmHg 94%
    Show more